Date String (YYYY-MM-DD hh:mm:ss) UTC,Instrument flags,Ambient pressure (hPa),Sample flow (lpm),Bypass flow (lpm),Sample temperature (°C),Ambient temperature (°C),ASC tube jacket temperature (°C),LED temperature (°C),Box temperature (°C),Sample RH (%),Span deviation,Mass concentration (μg/m³),Mass concentration (μg/m³),Mass concentration (μg/m³)
DateTimeUTC,F1_M11,P_M11,Q1_M11,Q2_M11,T1_M11,T2_M11,T3_M11,T4_M11,T5_M11,U1_M11,ZSPAN_M11,X0_M11,X2_M11,X1_M11
2022-03-18 22:00:00,,0824.1,5.01,0.00,25.2,24.4,00.0,34.1,26.9,07.1,0000.0,0004.00,0001.50,0000.92
2022-03-18 22:01:00,,0824.1,4.99,0.00,25.2,24.5,00.0,34.1,26.9,07.3,0000.0,0004.61,0001.53,0000.92
2022-03-18 22:02:00,,0824.2,5.02,0.00,25.2,24.5,00.0,34.1,27.0,07.2,0000.0,0004.79,0001.53,0000.92
2022-03-18 22:03:00,,0824.2,4.98,0.00,25.2,24.4,00.0,34.1,27.0,07.2,0000.0,0005.06,0001.56,0000.93
2022-03-18 22:04:00,,0824.2,5.00,0.00,25.2,24.4,00.0,34.1,27.0,07.3,0000.0,0006.55,0001.62,0000.93
2022-03-18 22:05:00,,0824.1,5.01,0.00,25.2,24.4,00.0,34.1,27.0,07.3,0000.0,0006.04,0001.59,0000.93
2022-03-18 22:06:00,,0824.0,5.00,0.00,25.2,24.4,00.0,34.1,27.0,07.2,0000.0,0005.64,0001.55,0000.92
2022-03-18 22:07:00,,0824.1,4.99,0.00,25.2,24.4,00.0,34.1,27.0,06.7,0000.0,0005.48,0001.52,0000.92
2022-03-18 22:08:00,,0824.1,5.02,0.00,25.2,24.4,00.0,34.1,27.0,06.9,0000.0,0005.37,0001.52,0000.93
2022-03-18 22:09:00,,0824.1,4.98,0.00,25.2,24.4,00.0,34.1,27.0,07.2,0000.0,0005.23,0001.50,0000.95
2022-03-18 22:10:00,,0824.1,5.02,0.00,25.2,24.4,00.0,34.1,27.0,06.9,0000.0,0005.29,0001.50,0000.96
2022-03-18 22:11:00,,0824.1,4.99,0.00,25.2,24.4,00.0,34.1,27.1,07.0,0000.0,0005.22,0001.51,0000.96
2022-03-18 22:12:00,,0824.1,5.00,0.00,25.2,24.4,00.0,34.2,27.1,07.1,0000.0,0004.74,0001.52,0000.96
2022-03-18 22:13:00,,0824.1,5.01,0.00,25.2,24.4,00.0,34.2,27.0,07.4,0000.0,0004.67,0001.54,0000.97
2022-03-18 22:14:00,,0824.0,4.99,0.00,25.2,24.3,00.0,34.2,27.0,07.4,0000.0,0004.59,0001.56,0000.98
2022-03-18 22:15:00,,0824.0,5.00,0.00,25.2,24.3,00.0,34.2,27.0,07.0,0000.0,0003.08,0001.55,0001.00
2022-03-18 22:16:00,,0824.0,5.01,0.00,25.2,24.3,00.0,34.2,27.0,07.2,0000.0,0003.06,0001.54,0001.00
2022-03-18 22:17:00,,0824.0,5.00,0.00,25.2,24.3,00.0,34.2,27.0,06.8,0000.0,0003.26,0001.57,0001.00
2022-03-18 22:18:00,,0824.1,4.99,0.00,25.2,24.3,00.0,34.2,27.0,07.3,0000.0,0003.51,0001.60,0001.01
2022-03-18 22:19:00,,0824.0,5.01,0.00,25.2,24.2,00.0,34.2,26.9,07.0,0000.0,0003.56,0001.59,0001.00
2022-03-18 22:20:00,,0824.0,4.99,0.00,25.1,24.2,00.0,34.2,26.9,06.8,0000.0,0003.51,0001.59,0001.00
2022-03-18 22:21:00,,0824.1,5.00,0.00,25.1,24.2,00.0,34.1,26.9,06.7,0000.0,0003.47,0001.57,0001.00
2022-03-18 22:22:00,,0824.0,5.01,0.00,25.1,24.2,00.0,34.1,27.0,06.5,0000.0,0003.37,0001.59,0001.00
2022-03-18 22:23:00,,0824.0,5.01,0.00,25.1,24.2,00.0,34.1,27.0,07.0,0000.0,0003.40,0001.60,0001.02
2022-03-18 22:24:00,,0824.0,4.99,0.00,25.1,24.2,00.0,34.1,27.0,07.0,0000.0,0003.34,0001.59,0001.02
2022-03-18 22:25:00,,0823.9,5.02,0.00,25.1,24.2,00.0,34.1,27.0,07.1,0000.0,0003.47,0001.61,0001.01
2022-03-18 22:26:00,,0823.9,4.99,0.00,25.1,24.2,00.0,34.1,26.9,07.0,0000.0,0003.45,0001.59,0001.00
2022-03-18 22:27:00,,0824.0,4.99,0.00,25.1,24.1,00.0,34.1,26.9,06.9,0000.0,0003.46,0001.62,0001.00
2022-03-18 22:28:00,,0824.0,5.00,0.00,25.1,24.1,00.0,34.1,26.9,06.2,0000.0,0003.39,0001.63,0001.00
2022-03-18 22:29:00,,0824.0,5.01,0.00,25.1,24.1,00.0,34.1,26.9,06.4,0000.0,0003.16,0001.60,0000.99
2022-03-18 22:30:00,,0824.1,5.00,0.00,25.1,24.1,00.0,34.1,27.0,06.6,0000.0,0003.22,0001.64,0000.99
2022-03-18 22:31:00,,0824.1,5.00,0.00,25.1,24.2,00.0,34.1,26.8,06.9,0000.0,0003.32,0001.68,0000.99
2022-03-18 22:32:00,,0824.1,4.99,0.00,25.1,24.2,00.0,34.1,26.8,06.7,0000.0,0003.29,0001.71,0000.99
2022-03-18 22:33:00,,0824.1,5.00,0.00,25.1,24.2,00.0,34.1,26.8,06.7,0000.0,0003.22,0001.67,0000.98
2022-03-18 22:34:00,,0824.1,5.01,0.00,25.1,24.2,00.0,34.1,26.8,06.9,0000.0,0003.19,0001.68,0000.96
2022-03-18 22:35:00,,0824.1,4.99,0.00,25.1,24.2,00.0,34.1,26.8,07.3,0000.0,0003.14,0001.67,0000.95
2022-03-18 22:36:00,,0824.0,5.00,0.00,25.1,24.2,00.0,34.1,26.8,07.1,0000.0,0003.01,0001.64,0000.95
2022-03-18 22:37:00,,0824.1,5.01,0.00,25.1,24.2,00.0,34.1,26.8,06.9,0000.0,0003.03,0001.64,0000.94
2022-03-18 22:38:00,,0824.1,4.99,0.00,25.1,24.2,00.0,34.1,26.8,06.6,0000.0,0002.97,0001.61,0000.95
2022-03-18 22:39:00,,0824.1,4.99,0.00,25.1,24.2,00.0,34.1,26.8,06.7,0000.0,0002.71,0001.54,0000.95
2022-03-18 22:40:00,,0824.1,5.00,0.00,25.1,24.2,00.0,34.1,26.8,07.2,0000.0,0002.65,0001.53,0000.95
2022-03-18 22:41:00,,0824.1,4.99,0.00,25.1,24.1,00.0,34.1,26.8,06.6,0000.0,0002.61,0001.52,0000.95
2022-03-18 22:42:00,,0824.1,5.03,0.00,25.0,24.1,00.0,34.1,26.8,06.7,0000.0,0002.44,0001.47,0000.94
2022-03-18 22:43:00,,0824.1,4.98,0.00,25.0,24.1,00.0,34.0,26.7,06.8,0000.0,0002.46,0001.45,0000.94
2022-03-18 22:44:00,,0824.1,5.01,0.00,25.0,24.1,00.0,34.0,26.7,07.2,0000.0,0002.48,0001.47,0000.95
2022-03-18 22:45:00,,0824.2,4.99,0.00,25.0,24.1,00.0,34.0,26.6,07.6,0000.0,0002.36,0001.42,0000.95
2022-03-18 22:46:00,,0824.1,5.01,0.00,25.0,24.1,00.0,34.0,26.6,07.2,0000.0,0002.29,0001.39,0000.95
2022-03-18 22:47:00,,0824.1,5.00,0.00,25.0,24.1,00.0,34.0,26.7,06.9,0000.0,0002.23,0001.35,0000.93
2022-03-18 22:48:00,,0824.1,5.00,0.00,25.0,24.1,00.0,34.0,26.8,07.1,0000.0,0002.15,0001.33,0000.93
2022-03-18 22:49:00,,0824.2,5.02,0.00,25.0,24.1,00.0,34.0,26.8,06.8,0000.0,0002.22,0001.35,0000.93
2022-03-18 22:50:00,,0824.2,4.99,0.00,25.0,24.1,00.0,34.0,26.7,06.9,0000.0,0002.40,0001.38,0000.93
2022-03-18 22:51:00,,0824.2,5.00,0.00,25.0,24.1,00.0,34.0,26.7,06.9,0000.0,0002.49,0001.43,0000.95
2022-03-18 22:52:00,,0824.1,5.00,0.00,25.0,24.1,00.0,34.0,26.7,07.3,0000.0,0002.49,0001.43,0000.95
2022-03-18 22:53:00,,0824.2,5.00,0.00,25.0,24.1,00.0,34.0,26.8,06.7,0000.0,0002.58,0001.44,0000.95
2022-03-18 22:54:00,,0824.2,4.99,0.00,25.0,24.1,00.0,34.0,26.8,06.4,0000.0,0002.65,0001.47,0000.95
2022-03-18 22:55:00,,0824.1,5.01,0.00,25.0,24.1,00.0,34.0,26.8,06.3,0000.0,0002.63,0001.48,0000.96
2022-03-18 22:56:00,,0824.2,4.99,0.00,25.0,24.1,00.0,34.0,26.7,06.9,0000.0,0002.83,0001.57,0000.96
2022-03-18 22:57:00,,0824.1,5.01,0.00,25.0,24.1,00.0,34.0,26.7,07.2,0000.0,0003.00,0001.61,0000.96
2022-03-18 22:58:00,,0824.1,4.99,0.00,25.0,24.1,00.0,34.0,26.7,06.6,0000.0,0003.08,0001.64,0000.98
2022-03-18 22:59:00,,0824.2,5.01,0.00,25.0,24.1,00.0,34.0,26.8,06.5,0000.0,0003.13,0001.69,0001.00
